Volver al catálogo

ARIANE 1 DEB

LostHEO
NORAD 25822·DEBRIS·🇫🇷 France

Lanzado Mar 5, 1984 desde Guiana Space Centre

Loading…

Próximos Pases (próximas 24 horas)

TLE

ObsoletoSource: Space-Track

Época: Sep 28, 2025, 17:30 UTC

1 25822U 84023D   25271.72929396  .00000033  00000-0  00000-0 0  9996
2 25822   7.6884 163.2711 6735054 279.0016 324.8727  2.53968668247953

Sigue ARIANE 1 DEB en tiempo real con AllMySat

Download on the App Store